Location: Asarope
(8.2500°N, 4.4833°E)
Time: 20:25:21
(UTC+00:00)

Hubble Space Telescope - Pass Details

Date: 05 August 2021
Orbit: 535 x 539 km, 28.5° (Epoch: 20 September)

Event Time Altitude Azimuth Distance (km) Brightness Sun altitude
Rises 20:12:18 0° 298° (WNW) 2,666 5.5 -31.1°
Reaches altitude 10° 20:14:34 10° 297° (WNW) 1,775 4.3 -31.6°
Enters shadow 20:16:04 22° 296° (WNW) 1,203 3.2 -31.9°
